OneWeb SL0244

operational
NORAD ID: 48776 Int'l Des: 2021-045 Owner: ONEWEBN Country: UK Constellation: oneweb
LEOCIRCULARPOLARONEWEB_TYPE

About OneWeb SL0244

Description loading...

Live Position

Loading 3D Globe...

Upcoming Passes

Altitude History

Altitude vs Time

uPlot chart will show altitude changes over time

Two-Line Element Set

1 48776U 21045K 26035.96284572 -.00000070 00000-0 -21994-3 0 9990
2 48776 87.8996 285.5687 0001366 78.5565 281.5718 13.15548125227585
Epoch: Feb 4, 2026 • Age: 32 hours

Current Status

Altitude 1228.9 km
Velocity 7.24 km/s
Sub-Earth Point -70.34°S, 28.86°E
Launch Date May 28, 2021
Age 4.6 years
Type internet

Technical Details

Classification Payload
Mass 148.00 kg
Dry Mass 140.00 kg
Total Mass 148.00 kg
Length 1.30 m
Diameter 1.00 m
Span 5.00 m
Shape Trapezoid+2 pan
Manufacturer ONEWUS
Bus Type ARROW
Phase Status In Orbit
Owner/State ONEWEBN/UK

Large Constellations

Loading constellations...